Flight Information

DEPARTURE
LOS ANGELES, CA
Elevation:
1003
Runways:
12/30 - 4120x75 - ASPH-G
Active PE Departure:
12 - 30
Current PE ATIS:
M
Altimeter:
Remarks:
IFR DEPARTURES EXPECT RUNWAY 3 0.
ATIS:
132.1 818-899-9820
Ground:
125
Tower:
135
DESTINATION
,
Elevation:
TPA:
1000 (est.)


6789.2 NM73° True-14° Var59° HDG

Flight Plan:
(click to file on line)

1. Type
2. Aircraft Identification
3. Aircraft Type / Special Equipment
4. True Airspeed
kts
5. Departure Airport
(ICAO code)
6. Arriving Airport
(ICAO code)
7. Cruising Altitude
ft
8. Alternate Airport
(ICAO code)
9. Route of Flight
10. Remarks


00:00:00 Departure ATIS: Destination ATIS:

Clearance Limit:
Route:
Altitude: Expect in minutes
Frequency:
Transponder: (7500 Hijack / 7600 Lost Comms / 7700 Emergency)


KWHP 211650Z 08003KT 10SM SKC 27/10 A3013
Time: 2021-09-21T16:50:00Z
1632245690
Winds: 80 @ 3 kts
Visibility: 10.0 sm
Clouds (AGL): SKC
Temperature: 27.0 C
Dew Point: 10.0 C
Pressure: 30.129921 in Hgbr


Notes:

Data extracted from FAA Digital Chart Supplement. Effective: 0901Z Thursday, AUG 12, 2021 to 0901Z Thursday, OCT 7, 2021
Current ATIS data is provided courtisy of PilotEdge.